Regional Weather Roundup
Issued by NWS Jackson, KY

Home | Current Version | Previous Version | Graphics & Text | Print | Product List | Glossary On
Versions: 1 2 3 4 5 6 7 8 9 10 11 12 13 14 15 16 17 18 19 20 21 22 23 24 25 26 27 28 29 30 31 32 33 34 35 36 37 38 39 40 41 42 43 44 45 46 47 48 49 50
000
ASUS43 KJKL 051210
RWRJKL

EAST KENTUCKY HOURLY WEATHER ROUNDUP
NATIONAL WEATHER SERVICE JACKSON KY
700 AM EST THU MAR 05 2015

NOTE: "FAIR" INDICATES FEW OR NO CLOUDS BELOW 12,000 FEET WITH
NO SIGNIFICANT WEATHER AND/OR OBSTRUCTIONS TO VISIBILITY.

* THESE REPORTS ARE NOT UNDER NWS QUALITY CONTROL AND MAY NOT
  REPORT WEATHER SUCH AS PRECIPITATION AND FOG.

KYZ079-080-083-085-087-088-110-112-115-119-120-051300
...EASTERN KENTUCKY...

CITY           SKY/WX    TMP DP  RH WIND       PRES   REMARKS
JACKSON        LGT SNOW  22  19  89 VRB7      30.15R VSB 3/4 WCI  13
6HR MIN TEMP:  22; 6HR MAX TEMP:  32; 6HR PCP:  0.29;

LONDON         FLURRIES  25  19  78 N14       30.14R WCI  13
6HR MIN TEMP:  25; 6HR MAX TEMP:  33; 6HR PCP:  0.27;

SOMERSET*      LGT SNOW  23  21  93 NE12      30.20R WCI  12
MONTICELLO*    SNOW      23  22  96 N17       30.21S VSB 1/2 WCI   9
6HR MIN TEMP:  23; 6HR MAX TEMP:  32; 6HR PCP:  0.07;

MIDDLESBORO*   MIX PCPN  33  31  93 N6        30.07S WCI  27
6HR MIN TEMP:  33; 6HR MAX TEMP:  37; 6HR PCP:  0.22;

HAZARD APT*    LGT SNOW  25  25 100 NE3       30.15R
BLACK MTN*       N/A     23  23 100 NE6         N/A  WCI  16
PIKEVILLE APT* LGT SNOW  23  23 100 N5        30.09F WCI  17
BIG SANDY*     LGT SNOW  23  22  95 N10       30.13S VSB 1   WCI  13
6HR MIN TEMP:  23; 6HR MAX TEMP:  32;

MOREHEAD APT*  LGT SNOW  19  16  86 N9        30.23R WCI   9
$$

KYZ035-036-041-042-044-050-067-078-099-051300
...CENTRAL KENTUCKY...

CITY           SKY/WX    TMP DP  RH WIND       PRES   REMARKS
MT STERLING*   LGT SNOW  19  18  93 NE10G17   30.22S WCI   8
FLEMING/MASON* SNOW      16  14  93 N8        30.25S VSB 1/2 WCI   5
DANVILLE*      LGT SNOW  19  19 100 N9        30.23R WCI   9
RICHMOND*      CLOUDY    19  16  86 CALM      30.20R VSB 1
LEXINGTON      FOG       17  14  88 N14       30.24R VSB 1   WCI   3
6HR MIN TEMP:  17; 6HR MAX TEMP:  24;

FRANKFORT      LGT SNOW  17  14  88 N10       30.26R FOG     WCI   5
6HR MIN TEMP:  17; 6HR MAX TEMP:  23; 6HR PCP:  0.21;

$$

KYZ091>093-OHZ055-061-077-WVZ005-015-034-035-042-051300
...SOUTHERN OHIO/WEST VIRGINIA...

CITY           SKY/WX    TMP DP  RH WIND       PRES   REMARKS
COVINGTON      LGT SNOW  18  11  74 N10       30.28R FOG     WCI   6
COLUMBUS       CLOUDY    17   4  56 N9        30.26S WCI   6
DAYTON         CLOUDY    17   5  59 N13       30.30R WCI   4
WILMINGTON     CLOUDY    17   4  56 N15       30.26R WCI   2
HUNTINGTON     LGT SNOW  21  19  92 N7        30.21R FOG     WCI  12
CHARLESTON     LGT SNOW  24  22  91 NW7       30.15S VSB 1   WCI  16
PINEVILLE*     LGT SNOW  33  32  96 MISG      30.09S
BECKLEY        MIX PCPN  26  23  88 N12       30.00S FOG     WCI  16
BLUEFIELD      FRZ RAIN  33  29  85 N6        29.98R FOG     WCI  28
$$

VAZ002-007-008-TNZ017-027-036-066-071-051300
...SOUTHWEST VIRGINIA/EAST TENNESSEE...

CITY           SKY/WX    TMP DP  RH WIND       PRES   REMARKS
WISE*          MIX PCPN  30  30 100 N8        29.98F VSB 1/2 WCI  23
JONESVILLE*    LGT RAIN  32  32 100 N5        30.04R WCI  27
ABINGDON*      LGT RAIN  36  35  97 E6        29.95F WCI  31
BRISTOL        LGT RAIN  35  34  96 NE5       29.97F WCI  31
KNOXVILLE      LGT RAIN  36  34  92 N9        30.02R FOG     WCI  29
OAK RIDGE      LGT RAIN  37  34  89 VRB5      30.05R WCI  33
CROSSVILLE     LGT SNOW  30  26  85 N13G22    30.03F FOG     WCI  20
NASHVILLE      SNOW      21  19  93 N10       30.26R VSB 1/2 WCI  10
$$

...KEY TO REMARKS...
VSB - VISIBILITY IN MILES
WCI - WIND CHILL INDEX
HX  - HEAT INDEX

$$


USA.gov is the U.S. government's official web portal to all federal, state and local government web resources and services.